Orbital Elements at Epoch 2459000.5 (2020-May-31.0) TDB
Reference: JPL 17 (heliocentric ecliptic J2000)
Element | Value | Uncertainty (1-sigma) | Units |
e | .1278226704336648 | 6.9599e-08 | |
a | 2.695124106657303 | 1.8401e-08 | au |
q | 2.350626146194221 | 1.8354e-07 | au |
i | 3.179040448109516 | 6.4759e-06 | deg |
node | 23.03317947602993 | 9.9068e-05 | deg |
peri | 331.6813154391878 | 0.00010122 | deg |
M | 168.1757271635171 | 2.2185e-05 | deg |
tp | 2458245.534000578910 (2018-May-07.03400058) | 9.7284e-05 | TDB |
period | 1616.093858344572 4.42 | 1.6551e-05 4.531e-08 | d yr |
n | .2227593392185539 | 2.2813e-09 | deg/d |
Q | 3.039622067120384 | 2.0753e-08 | au |
|
| | Orbit Determination Parameters
Additional Information
|